EW9826 Weather Reports


Display with metric or nautical units.
time (UTC)temp
F
wind
direction
speed
MPH
gust
MPH
rain 1hr
in
rain 24hr
in
rain mn
in
humidity
%
barometer
mb
20260506095004 57 0 5.0 14.0 0.00 0.00 0.00 64 1009.2
20260506094504 57 27 4.0 10.0 0.00 0.00 0.00 66 1009.1
20260506094004 56 35 5.0 20.0 0.00 0.00 0.00 66 1009.1
20260506093505 57 47 5.0 15.0 0.00 0.00 0.00 66 1009.1
20260506093005 57 354 6.0 12.0 0.00 0.00 0.00 66 1009.1
20260506092004 57 18 6.0 14.0 0.00 0.00 0.00 67 1009.1
20260506091504 57 32 6.0 13.0 0.00 0.00 0.00 66 1009.1
20260506091004 57 20 6.0 15.0 0.00 0.00 0.00 67 1009.0
20260506090004 56 61 5.0 14.0 0.00 0.00 0.00 68 1009.1
20260506085504 56 59 6.0 12.0 0.00 0.00 0.00 68 1009.0
20260506085005 56 63 7.0 10.0 0.00 0.00 0.00 69 1009.0
20260506084504 55 19 5.0 10.0 0.00 0.00 0.00 72 1009.0
20260506084009 55 6 7.0 12.0 0.00 0.00 0.00 72 1009.0
20260506083010 55 17 4.0 10.0 0.00 0.00 0.00 74 1009.0
20260506082508 54 16 5.0 12.0 0.00 0.00 0.00 74 1009.0
20260506073508 54 25 5.0 12.0 0.00 0.00 0.00 76 1009.0
20260506072508 54 0 5.0 10.0 0.00 0.00 0.00 76 1009.0
20260506062008 52 1 6.0 12.0 0.00 0.00 0.00 80 1008.6
20260506061508 52 11 5.0 10.0 0.00 0.00 0.00 81 1008.6
20260506045007 50 4 6.0 12.0 0.00 0.00 0.00 83 1008.6
20260506044507 50 353 7.0 10.0 0.00 0.00 0.00 83 1008.6
20260506041508 50 5 4.0 9.0 0.00 0.00 0.00 83 1008.6
20260506041008 50 355 4.0 12.0 0.00 0.00 0.00 82 1008.6
20260506035008 49 4 4.0 9.0 0.00 0.00 0.00 82 1008.7
20260506033507 49 2 5.0 10.0 0.00 0.00 0.00 82 1008.9
20260506033008 49 355 6.0 9.0 0.00 0.00 0.00 83 1008.9
20260506032507 49 358 5.0 9.0 0.00 0.00 0.00 83 1008.9
20260506031008 49 339 5.0 9.0 0.00 0.00 0.00 83 1009.0
20260506025007 49 13 4.0 7.0 0.00 0.00 0.00 84 1009.1
20260506024508 49 355 4.0 7.0 0.00 0.00 0.00 84 1009.1
20260506024008 49 11 3.0 8.0 0.00 0.00 0.00 84 1009.1
20260506023507 49 1 3.0 7.0 0.00 0.00 0.00 84 1009.1
20260506023008 49 3 5.0 8.0 0.00 0.00 0.00 84 1009.1
20260506015507 48 1 6.0 10.0 0.00 0.00 0.00 84 1009.2
20260506015007 48 0 6.0 10.0 0.00 0.00 0.00 84 1009.3
20260506014507 48 7 5.0 12.0 0.00 0.00 0.00 84 1009.2
20260506014007 48 350 5.0 12.0 0.00 0.00 0.00 84 1009.2
20260506013507 48 355 5.0 10.0 0.00 0.00 0.00 84 1009.3
20260506012007 48 15 5.0 12.0 0.00 0.00 0.00 84 1009.3
20260506011507 48 11 4.0 8.0 0.00 0.00 0.00 84 1009.3
20260506011007 48 0 5.0 9.0 0.00 0.00 0.00 84 1009.3
20260506010007 48 3 6.0 10.0 0.00 0.00 0.00 84 1009.5
20260506005506 48 0 4.0 9.0 0.00 0.00 0.00 84 1009.6
20260506005007 48 13 3.0 8.0 0.00 0.00 0.00 84 1009.6
20260506003506 48 4 3.0 9.0 0.00 0.00 0.00 83 1009.6
20260506003008 48 328 5.0 12.0 0.00 0.00 0.00 83 1009.7
20260506002508 48 352 7.0 12.0 0.00 0.00 0.00 83 1009.7
20260505235007 48 357 5.0 10.0 0.00 0.00 0.00 81 1010.0
20260505234506 48 351 4.0 9.0 0.00 0.00 0.00 81 1010.0
20260505234007 48 358 5.0 9.0 0.00 0.00 0.00 81 1010.1
20260505233506 48 356 3.0 9.0 0.00 0.00 0.00 81 1010.1
20260505232507 48 355 4.0 8.0 0.00 0.00 0.00 80 1010.1
20260505232007 48 3 5.0 10.0 0.00 0.00 0.00 80 1010.1
20260505231506 48 358 5.0 9.0 0.00 0.00 0.00 79 1010.1
20260505231007 49 3 5.0 17.0 0.00 0.00 0.00 79 1010.2
20260505230007 49 1 5.0 10.0 0.00 0.00 0.00 78 1010.2
20260505225507 49 2 5.0 12.0 0.00 0.00 0.00 78 1010.3
20260505225007 49 3 4.0 8.0 0.00 0.00 0.00 78 1010.3
20260505221507 49 9 5.0 12.0 0.00 0.00 0.00 78 1010.5
20260505221007 49 4 6.0 12.0 0.00 0.00 0.00 78 1010.5
20260505220007 49 347 6.0 9.0 0.00 0.00 0.00 78 1010.6
20260505215506 49 7 6.0 8.0 0.00 0.00 0.00 78 1010.6
20260505215007 49 3 5.0 9.0 0.00 0.00 0.00 78 1010.6
20260505214507 49 0 6.0 9.0 0.00 0.00 0.00 78 1010.6
20260505214006 49 0 4.0 9.0 0.00 0.00 0.00 78 1010.6
20260505213507 49 353 5.0 8.0 0.00 0.00 0.00 78 1010.6
20260505213006 49 355 5.0 9.0 0.00 0.00 0.00 78 1010.7
20260505212506 49 355 4.0 8.0 0.00 0.00 0.00 78 1010.7
20260505212007 49 355 3.0 7.0 0.00 0.00 0.00 78 1010.7
20260505204506 50 359 4.0 8.0 0.00 0.00 0.00 78 1010.9
20260505204006 50 3 3.0 9.0 0.00 0.00 0.00 77 1011.0
20260505203506 50 355 5.0 8.0 0.00 0.00 0.00 77 1010.9
20260505203006 50 3 3.0 7.0 0.00 0.00 0.00 77 1010.9
20260505194506 51 35 3.0 6.0 0.00 0.00 0.00 77 1010.6
20260505194006 51 359 3.0 7.0 0.00 0.00 0.00 77 1010.6
20260505193007 51 315 4.0 8.0 0.00 0.00 0.00 76 1010.6
20260505192506 51 13 5.0 8.0 0.00 0.00 0.00 76 1010.5
20260505191506 52 10 3.0 6.0 0.00 0.00 0.00 75 1010.2
20260505191006 52 9 4.0 9.0 0.00 0.00 0.00 74 1010.2
20260505190006 52 3 5.0 12.0 0.00 0.00 0.00 74 1010.1
20260505185506 53 352 5.0 10.0 0.00 0.00 0.00 74 1010.1
20260505183006 54 19 6.0 14.0 0.00 0.00 0.00 72 1010.0
20260505182506 54 351 6.0 12.0 0.00 0.00 0.00 72 1010.0
20260505173006 56 3 5.0 10.0 0.00 0.00 0.00 68 1009.9
20260505172505 56 19 6.0 12.0 0.00 0.00 0.00 67 1009.9
20260505172006 56 7 4.0 10.0 0.00 0.00 0.00 67 1010.0
20260505171506 56 343 5.0 9.0 0.00 0.00 0.00 67 1010.0
20260505171007 56 357 5.0 13.0 0.00 0.00 0.00 67 1010.0
20260505165505 57 7 9.0 15.0 0.00 0.00 0.00 65 1010.1
20260505165006 57 358 6.0 10.0 0.00 0.00 0.00 65 1010.1
20260505164506 58 351 5.0 12.0 0.00 0.00 0.00 65 1010.1
20260505162005 58 27 7.0 13.0 0.00 0.00 0.00 65 1010.1
20260505161506 58 26 5.0 12.0 0.00 0.00 0.00 65 1010.1
20260505161005 58 61 6.0 12.0 0.00 0.00 0.00 65 1010.1
20260505153006 58 15 5.0 10.0 0.00 0.00 0.00 62 1010.1
20260505152505 58 76 5.0 14.0 0.00 0.00 0.00 63 1010.1
20260505151506 58 67 6.0 13.0 0.00 0.00 0.00 63 1010.1
20260505124505 58 74 6.0 14.0 0.00 0.00 0.00 60 1010.6
20260505124005 59 59 7.0 16.0 0.00 0.00 0.00 61 1010.7
20260505123505 59 56 6.0 12.0 0.00 0.00 0.00 61 1010.7
20260505123005 59 65 5.0 10.0 0.00 0.00 0.00 62 1010.7
20260505122504 58 49 5.0 14.0 0.00 0.00 0.00 62 1010.8
20260505122006 58 60 7.0 13.0 0.00 0.00 0.00 62 1010.7
20260505121505 58 74 5.0 14.0 0.00 0.00 0.00 62 1010.7
20260505121005 58 70 5.0 14.0 0.00 0.00 0.00 62 1010.6
20260505115005 58 27 7.0 14.0 0.00 0.00 0.00 63 1010.8
20260505114505 58 58 7.0 14.0 0.00 0.00 0.00 62 1010.9
20260505114005 58 357 6.0 12.0 0.00 0.00 0.00 63 1011.0
20260505113504 58 25 6.0 13.0 0.00 0.00 0.00 63 1011.1
20260505113005 58 25 5.0 10.0 0.00 0.00 0.00 64 1011.1
20260505112504 58 39 5.0 12.0 0.00 0.00 0.00 65 1011.1
20260505112005 57 64 5.0 13.0 0.00 0.00 0.00 64 1011.1
20260505111505 57 71 7.0 14.0 0.00 0.00 0.00 62 1011.1
20260505111004 57 51 6.0 12.0 0.00 0.00 0.00 64 1011.1